COBE DEB

Satellite information

Favourite Embed

Satellite Type and Status

DEBRISIN ORBIT

Key statistics

Satellite COBE DEB at a glance.

Uptime

13015

Days in orbit

Revolutions

≈ 14.2

Per day

Orbit

SSO

Sun Synchronous Orbit

Inclination

98.7

Latest

Satellite identification and parameters

Extended collection of information and parameters for COBE DEB.

Object identification

Identified? True

Debris? True

Object name: COBE DEB

International designator: 1989-089C

Object number (NORAD): 20324

Object ID (CCSDS): 20324

Country: UNITED STATES OF AMERICA (US)

Current information (Y/N): Y

RCS size: SMALL

Orbital parameters

Period: 101.397 minutes

Inclination: 98.702 deg

SMA: 7202.946 km

Apoapsis: 834.327 km

Periapsis: 815.295 km

RAAN: 198.1561 deg

Eccentricy: 0.0013211

Argument of periapsis: 61.6439 deg

Mean anomaly: 95.9552 deg

Mean motion: 14.20160844 rev/day

Mean motion (dot): 0.00000569 rev/day2

B* drag term: 0.00028708 1/REarth

Two-line elements (TLE)

Creation date: July 6, 2025, 6:05 p.m.

Reference frame: TEME

Reference center: EARTH

Epoch: July 6, 2025, 12:14 p.m. UTC

TLE line 0: 0 COBE DEB

TLE line 1: 1 20324U 89089C 25187.51024216 .00000569 00000-0 28708-3 0 9997

TLE line 2: 2 20324 98.7020 198.1561 0013211 61.6439 95.9552 14.20160844836458

Live tracking on map

Real-time ground track for satellite COBE DEB.

In-orbit conjunctions

A list of the most updated potential collisions computed for object COBE DEB.

Target Orbit TCA Probability of collision Miss distance Type
COSMOS 1275 DEB LEO 2024-11-06 09:44:58 0.001117488 25.0 (m) DEBRIS

Associated space launch

Cosmology research satellite

COBE DEB was lifted into orbit during the mission ‘Delta 5920-8 | COBE’, on board a Delta 5920-8 space rocket.

The launch took place on Nov. 18, 1989, 2:34 p.m. from Space Launch Complex 2W.

For more information about the launch, click the button.

Launch to space Delta 5920-8 | COBE
Delta 5920-8 | COBE

Agency: N/A

Status: Launch Successful

Launch date: Nov. 18, 1989, 2:34 p.m. UTC

Rocket: Delta 5920-8

Launch pad: Space Launch Complex 2W

Location: Vandenberg SFB, CA, USA

...

Latest news about this satellite

There are no fresh news available about this satellite. Check back as we update our databases every day.


Newsletter sign-up

Weekly statistics, charts and insights to help you stay on top of the space industry.